Ankeny, IA

3:51 AM CDT on March 23, 2017 (GMT -0500)
Ankeny Regional

Weather History for KIKV - June, 2013

Change the Weather History Date:

Sunday, June 2, 2013

  Actual Average (KDSM) Record (KDSM)
Temperature  
Mean Temperature 56 °F -  
Max Temperature 64 °F 76 °F 100 °F (1934)
Min Temperature 48 °F 56 °F 43 °F (1888)
Degree Days  
Heating Degree Days 9    
Growing Degree Days 6 (Base 50)    
Moisture  
Dew Point 46 °F    
Average Humidity 69    
Maximum Humidity 94    
Minimum Humidity 49    
Precipitation  
Precipitation 0.00 in - - ()
Sea Level Pressure  
Sea Level Pressure 30.03 in    
Wind  
Wind Speed 11 mph (NNW)    
Max Wind Speed 18 mph    
Max Gust Speed 28 mph    
Visibility 10 miles    
Events      
Averages and records for this station are not official NWS values.
T = Trace of Precipitation, MM = Missing Value Source: NWS Daily Summary

Daily Weather History Graph

Daily Weather History Graph

Search for Another Location

Airport or City:

Trip Planner

Search our weather history database for the weather conditions in past years. The results will help you decide how hot, cold, wet, or windy it might be!

Date:

Astronomy

Jun. 02, 2013 Rise Set
Actual Time 5:41 AM CDT 8:43 PM CDT
Civil Twilight 5:08 AM CDT 9:16 PM CDT
Nautical Twilight 4:25 AM CDT 9:59 PM CDT
Astronomical Twilight 3:35 AM CDT 10:49 PM CDT
Moon 2:13 AM CDT (6/2) 3:10 PM CDT (6/2)
Length of Visible Light 16h 08m
Length of Day
15h 01m
Waning Crescent, 30% of the Moon is Illuminated
Jun 2
Waning Crescent
Jun 8
New
Jun 16
First Quarter
Jun 23
Full
Jun 29
Last Quarter

Hourly Weather History & Observations

Time (CDT) Temp. Dew Point Humidity Pressure Visibility Wind Dir Wind Speed Gust Speed Precip Events Conditions
12:15 AM 57.2 °F 50.0 °F 77% 29.93 in 10.0 mi WNW 15.0 mph - N/A   Overcast
12:35 AM 57.2 °F 50.0 °F 77% 29.93 in 10.0 mi NW 13.8 mph 20.7 mph N/A   Overcast
12:55 AM 57.2 °F 50.0 °F 77% 29.93 in 10.0 mi NW 11.5 mph 19.6 mph N/A   Overcast
1:15 AM 57.2 °F 50.0 °F 77% 29.93 in 10.0 mi NW 11.5 mph 17.3 mph N/A   Overcast
1:35 AM 57.2 °F 50.0 °F 77% 29.95 in 10.0 mi NW 10.4 mph 17.3 mph N/A   Overcast
1:55 AM 57.2 °F 50.0 °F 77% 29.95 in 10.0 mi NW 11.5 mph - N/A   Overcast
2:15 AM 55.4 °F 50.0 °F 82% 29.95 in 10.0 mi NW 12.7 mph - N/A   Overcast
2:35 AM 55.4 °F 48.2 °F 77% 29.95 in 10.0 mi NW 12.7 mph 20.7 mph N/A   Overcast
2:55 AM 55.4 °F 48.2 °F 77% 29.95 in 10.0 mi NNW 11.5 mph 18.4 mph N/A   Overcast
3:15 AM 55.4 °F 48.2 °F 77% 29.95 in 10.0 mi NNW 15.0 mph - N/A   Overcast
3:35 AM 55.4 °F 48.2 °F 77% 29.96 in 10.0 mi NNW 13.8 mph - N/A   Overcast
3:55 AM 53.6 °F 46.4 °F 77% 29.96 in 10.0 mi NNW 12.7 mph 18.4 mph N/A   Overcast
4:15 AM 53.6 °F 46.4 °F 77% 29.97 in 10.0 mi NNW 10.4 mph 18.4 mph N/A   Overcast
4:35 AM 53.6 °F 46.4 °F 77% 29.98 in 10.0 mi NNW 9.2 mph 20.7 mph N/A   Overcast
4:55 AM 53.6 °F 46.4 °F 77% 29.98 in 10.0 mi NNW 11.5 mph - N/A   Overcast
5:15 AM 53.6 °F 48.2 °F 82% 29.99 in 10.0 mi NNW 8.1 mph - N/A   Overcast
5:35 AM 53.6 °F 48.2 °F 82% 30.00 in 10.0 mi NNW 10.4 mph - N/A   Overcast
5:55 AM 53.6 °F 46.4 °F 77% 30.01 in 10.0 mi NNW 9.2 mph - N/A   Overcast
6:15 AM 53.6 °F 48.2 °F 82% 30.02 in 10.0 mi NNW 10.4 mph - N/A   Overcast
6:35 AM 53.6 °F 48.2 °F 82% 30.02 in 10.0 mi NNW 12.7 mph - N/A   Overcast
6:55 AM 53.6 °F 46.4 °F 77% 30.03 in 10.0 mi NW 15.0 mph - N/A   Overcast
7:15 AM 53.6 °F 44.6 °F 72% 30.03 in 10.0 mi NW 12.7 mph 20.7 mph N/A   Overcast
7:35 AM 51.8 °F 44.6 °F 76% 30.03 in 10.0 mi NNW 17.3 mph - N/A   Mostly Cloudy
7:55 AM 51.8 °F 44.6 °F 76% 30.04 in 10.0 mi NNW 13.8 mph - N/A   Mostly Cloudy
8:15 AM 53.6 °F 44.6 °F 72% 30.05 in 10.0 mi NNW 18.4 mph - N/A   Mostly Cloudy
8:35 AM 53.6 °F 44.6 °F 72% 30.05 in 10.0 mi NNW 16.1 mph 23.0 mph N/A   Overcast
8:55 AM 53.6 °F 42.8 °F 67% 30.06 in 10.0 mi North 16.1 mph 26.5 mph N/A   Overcast
9:15 AM 55.4 °F 44.6 °F 67% 30.07 in 10.0 mi North 12.7 mph 20.7 mph N/A   Scattered Clouds
9:35 AM 55.4 °F 42.8 °F 63% 30.07 in 10.0 mi North 17.3 mph 27.6 mph N/A   Clear
9:55 AM 55.4 °F 42.8 °F 63% 30.07 in 10.0 mi North 16.1 mph 25.3 mph N/A   Clear
10:15 AM 57.2 °F 42.8 °F 59% 30.06 in 10.0 mi North 18.4 mph 25.3 mph N/A   Partly Cloudy
10:35 AM 57.2 °F 44.6 °F 63% 30.07 in 10.0 mi NNE 12.7 mph 20.7 mph N/A   Mostly Cloudy
10:55 AM 57.2 °F 44.6 °F 63% 30.06 in 10.0 mi NNE 16.1 mph 24.2 mph N/A   Overcast
11:15 AM 57.2 °F 44.6 °F 63% 30.08 in 10.0 mi North 12.7 mph 19.6 mph N/A   Overcast
11:35 AM 57.2 °F 44.6 °F 63% 30.08 in 10.0 mi North 11.5 mph 19.6 mph N/A   Overcast
11:55 AM 57.2 °F 44.6 °F 63% 30.08 in 10.0 mi North 12.7 mph 18.4 mph N/A   Overcast
12:15 PM 57.2 °F 44.6 °F 63% 30.08 in 10.0 mi North 13.8 mph - N/A   Overcast
12:35 PM 59.0 °F 44.6 °F 59% 30.07 in 10.0 mi NNW 13.8 mph - N/A   Overcast
12:55 PM 59.0 °F 44.6 °F 59% 30.08 in 10.0 mi North 10.4 mph - N/A   Overcast
1:15 PM 59.0 °F 44.6 °F 59% 30.08 in 10.0 mi North 5.8 mph 15.0 mph N/A   Overcast
1:35 PM 60.8 °F 46.4 °F 59% 30.07 in 10.0 mi North 6.9 mph 13.8 mph N/A   Overcast
1:55 PM 60.8 °F 44.6 °F 55% 30.07 in 10.0 mi North 10.4 mph - N/A   Mostly Cloudy
2:15 PM 60.8 °F 44.6 °F 55% 30.07 in 10.0 mi Variable 4.6 mph 12.7 mph N/A   Mostly Cloudy
2:35 PM 60.8 °F 44.6 °F 55% 30.07 in 10.0 mi North 11.5 mph - N/A   Overcast
2:55 PM 60.8 °F 46.4 °F 59% 30.06 in 10.0 mi Variable 5.8 mph - N/A   Overcast
3:15 PM 62.6 °F 44.6 °F 52% 30.06 in 10.0 mi Variable 4.6 mph 13.8 mph N/A   Mostly Cloudy
3:35 PM 62.6 °F 44.6 °F 52% 30.06 in 10.0 mi Variable 6.9 mph - N/A   Scattered Clouds
3:55 PM 64.4 °F 44.6 °F 49% 30.06 in 10.0 mi North 5.8 mph - N/A   Mostly Cloudy
4:15 PM 64.4 °F 44.6 °F 49% 30.06 in 10.0 mi Variable 3.5 mph 12.7 mph N/A   Mostly Cloudy
4:35 PM 64.4 °F 44.6 °F 49% 30.05 in 10.0 mi Variable 4.6 mph - N/A   Scattered Clouds
4:55 PM 64.4 °F 44.6 °F 49% 30.04 in 10.0 mi Variable 4.6 mph - N/A   Mostly Cloudy
5:15 PM 62.6 °F 44.6 °F 52% 30.04 in 10.0 mi Calm Calm - N/A   Scattered Clouds
5:35 PM 64.4 °F 44.6 °F 49% 30.04 in 10.0 mi NNE 6.9 mph - N/A   Clear
5:55 PM 62.6 °F 44.6 °F 52% 30.03 in 10.0 mi Variable 3.5 mph - N/A   Partly Cloudy
6:15 PM 64.4 °F 44.6 °F 49% 30.03 in 10.0 mi Variable 6.9 mph - N/A   Partly Cloudy
6:35 PM 64.4 °F 44.6 °F 49% 30.02 in 10.0 mi Calm Calm - N/A   Clear
6:55 PM 62.6 °F 46.4 °F 55% 30.02 in 1.5 mi NNE 5.8 mph - N/A   Haze
7:15 PM 62.6 °F 44.6 °F 52% 30.03 in 10.0 mi Variable 3.5 mph - N/A   Mostly Cloudy
7:35 PM 64.4 °F 44.6 °F 49% 30.02 in 10.0 mi Calm Calm - N/A   Mostly Cloudy
7:55 PM 62.6 °F 46.4 °F 55% 30.02 in 10.0 mi North 5.8 mph - N/A   Mostly Cloudy
8:15 PM 62.6 °F 46.4 °F 55% 30.02 in 7.0 mi Calm Calm - N/A   Scattered Clouds
8:35 PM 59.0 °F 48.2 °F 67% 30.02 in 10.0 mi Calm Calm - N/A   Clear
8:55 PM 55.4 °F 50.0 °F 82% 30.02 in 10.0 mi Calm Calm - N/A   Partly Cloudy
9:15 PM 55.4 °F 50.0 °F 82% 30.02 in 10.0 mi Calm Calm - N/A   Clear
9:35 PM 53.6 °F 50.0 °F 88% 30.03 in 9.0 mi Calm Calm - N/A   Clear
9:55 PM 53.6 °F 50.0 °F 88% 30.03 in 3.0 mi Calm Calm - N/A   Haze
10:15 PM 51.8 °F 48.2 °F 88% 30.04 in 9.0 mi Calm Calm - N/A   Clear
10:35 PM 50.0 °F 48.2 °F 94% 30.04 in 9.0 mi Calm Calm - N/A   Clear
10:55 PM 50.0 °F 48.2 °F 94% 30.04 in - Calm Calm - N/A   Unknown
11:15 PM 50.0 °F 48.2 °F 94% 30.04 in 3.0 mi Calm Calm - N/A   Clear
11:35 PM 48.2 °F 46.4 °F 93% 30.04 in 6.0 mi Calm Calm - N/A   Clear
11:55 PM 48.2 °F 46.4 °F 93% 30.04 in 7.0 mi Calm Calm - N/A   Clear